Regional Weather Roundup
Issued by NWS Charleston, SC

Current Version | Previous Version | Graphics & Text | Print | Product List | Glossary On
Versions: 1 2 3 4 5 6 7 8 9 10 11 12 13 14 15 16 17 18 19 20 21 22 23 24 25 26 27 28 29 30 31 32 33 34 35 36 37 38 39 40 41 42 43 44 45 46 47 48 49 50
000
ASUS42 KCHS 290928
RWRCHS

REGIONAL WEATHER ROUNDUP
NATIONAL WEATHER SERVICE CHARLESTON SC
500 AM EDT SUN MAY 29 2016

NOTE: "FAIR" INDICATES FEW OR NO CLOUDS BELOW 12,000 FEET WITH NO
SIGNIFICANT WEATHER AND/OR OBSTRUCTIONS TO VISIBILITY.

NOT ALL STATIONS ARE QUALITY CONTROLLED. USE DATA WITH CAUTION...
ESPECIALLY DEWPOINT OBSERVATIONS.

SCZ027-030-031-034>040-042>050-291000-
...SOUTHEAST SOUTH CAROLINA...

CITY           SKY/WX    TMP DP  RH WIND       PRES   REMARKS
N CHARLESTON   CLOUDY    73  70  90 NE10      29.92S
WATERFRONT PRK   N/A     73  73 100 NE10      29.89F
MOUNT PLEASANT PTSUNNY   72  72 100 N6        29.91F
JOHNS ISLAND   CLOUDY    73  72  94 N7        29.90F
PINOPOLIS        N/A     73  72  94 NE13      29.87S
MONCKS CORNER  CLOUDY    68  66  94 N10       29.94F
SUMMERVILLE    LGT RAIN  72  72 100 N8        29.94F
BEAUFORT MCAS  HVY RAIN  68  67  96 W9        29.93F FOG
BEAUFORT ARPT  DRIZZLE   68  68 100 W13       29.93S
HILTON HEAD IS HVY RAIN  68  68 100 W9G15     29.94F
WALTERBORO     HVY RAIN  72  72 100 N8        29.95F
ALLENDALE      LGT RAIN  66  66 100 N9        29.98S

...SOUTHERN MIDLANDS AND PEE DEE...

CITY           SKY/WX    TMP DP  RH WIND       PRES   REMARKS
GEORGETOWN     LGT RAIN  72  72 100 NE8       29.95S
KINGSTREE      DRIZZLE   70  68  94 N5        29.98S
ORANGEBURG     CLOUDY    71  68  90 N10       29.99F
BARNWELL       RAIN      70  70 100 N15       30.01S
AIKEN          RAIN      63  63 100 NW9       30.09S
MANNING        CLOUDY    70  70 100 N8        29.98S
COLUMBIA       LGT RAIN  70  67  90 N5        30.03R
SUMTER         LGT RAIN  72  68  88 N12       29.99S
FLORENCE       CLOUDY    73  70  90 NE10      30.01S
MYRTLE BEACH   CLOUDY    73  66  78 E7        29.99S
N MYRTLE BEACH CLOUDY    74  72  93 E8        29.97F

$$

GAZ063-065-086>088-099>101-113>116-118-119-134>141-150-291000-
...SOUTHEAST GEORGIA...

CITY           SKY/WX    TMP DP  RH WIND       PRES   REMARKS
SAVANNAH ARPT  CLOUDY    68  66  93 NW9       29.97S
HUNTER AAF     CLOUDY    68  68 100 W7        29.94S
FORT STEWART   MOCLDY    68  64  88 W5        29.98R
STATESBORO     HVY RAIN  67  67 100 NW8       30.01S
SYLVANIA       HVY RAIN  69  67  94 NW10      30.01F
CLAXTON        FAIR      69  67  96 NW8       30.01S

...CSRA...CENTRAL AND FAR SOUTHEAST GEORGIA...

CITY           SKY/WX    TMP DP  RH WIND       PRES   REMARKS
THOMSON        CLOUDY    69  69 100 CALM      30.11S
AUGUSTA-BUSH   RAIN      66  66 100 N10       30.04F FOG
AUGUSTA-DANIEL RAIN      67  64  90 N8        30.06S FOG
SWAINSBORO     DRIZZLE   66  64  94 NW5       30.05S
VIDALIA        CLOUDY    68  63  83 N7        30.04S
EASTMAN        FAIR     N/A N/A N/A NW5       30.08R
HAZLEHURST     FAIR      68  66  93 CALM      30.03S
ALMA           PTCLDY    63  62  97 CALM      30.03S
WAYCROSS       CLEAR     64  64  98 W3        30.04R
JESUP          FAIR      63  61  94 NE3       30.03R
BAXLEY         FAIR      68  66  94 CALM      30.03R
BRUNSWICK      CLEAR     70  64  83 W7        30.01S
SAINT SIMONS   CLEAR     69  66  90 VRB7      30.00R

$$

SCZ027-028-034-036>038-045-046-048>050-GAZ119-141-291000-
...LAKE AND SUPPLEMENTAL COASTAL OBSERVATIONS...

STATION/POSITION TIME  TEMP    WIND        PRES    WAVE   SWELL
                       AIR SEA DIR/SP/G            HT/PER HT/PER/DIR
                 (UTC) (F)     (DEG/KT/KT) (MB)    (FT/S) (FT/S/D)
WINYAH BAY       0800   74      70/ 15     1013.0
LAKE MURRAY      0800   69      CALM  /  5 1016.9F
ACE BASIN NERRS  0800   71     360/  2     1014.0S
FORT PULASKI     0900   69 76  300/ 13/ 15 1014.2F
SAPELO ISLAND    0900   69     290/  9     1015.0S

$$

ANZ835-935-AMZ111-154-330-350-352-354-370-450-454-472-291000-
...C-MAN AND BUOY OBSERVATIONS...

STATION/POSITION TIME  TEMP    WIND        PRES    WAVE   SWELL
                       AIR SEA DIR/SP/G            HT/PER HT/PER/DIR
                 (UTC) (F)     (DEG/KT/KT) (MB)    (FT/S) (FT/S/D)
BUOY 41004       0850   76 78  110/ 23/ 29 1010.4F   7/ 8
BUOY 41008       0850   72 75  280/ 16/ 17 1014.6R   5/ 6   2/ 50/10
FOLLY BEACH CMAN 0900   74      30/ 18/ 20 1012.5F
CAPERS NEARSHORE 0908   75 75   40/ 16/ 21 1012.1F
FRIPP NEARSHORE  0908   70 75  300/ 19/ 27 1012.3S


STATION/POSITION TIME  TEMP    WIND        PRES    WAVE   SWELL
                       AIR SEA DIR/SP/G            HT/PER HT/PER/DIR
                 (UTC) (F)     (DEG/KT/KT) (MB)    (FT/S) (FT/S/D)
5E ST. MARYS GA  0901      78                N/A     4/ 7
FRYING PAN BUOY  0900   78 78  140/ 16/ 21 1015.0S
BUOY 41025       0850   78 79  130/ 14/ 17 1018.2F   4/ 8   2/130/ 8
CAPE LOOKOUT NC  0900   73     110/ 15/ 17 1017.4S
BUOY 41002       0850   75 75  120/ 14/ 16 1018.2R   4/ 7   3/ 90/ 7
BUOY 41010       0820   78 79  200/ 10/ 12 1016.1F
ST AUGUSTINE FL  0900   70 78  260/  6/  7 1017.6S


$$



USA.gov is the U.S. government's official web portal to all federal, state and local government web resources and services.